When you browse on this site, cookies collect data to enhance your experience and personalize the content and advertising you see.
Visit our Privacy Policy to learn more. By continuing to use the site, you agree to this use of cookies and data.
  • In Germany
  • List of Countries
  • For 7 days
  • Water Temperature
  • Weather Map
  • Weather Widgets
  • user-avatar
    Login

    Hourly Weather San Juan

    Today, 16 December, Monday

    Time Temperature Precipitation Wind Pressure Humidity
    00:00 +26°C° 0 mm 4 mps 705 mmHg 26%
    01:00 +25°C° 0 mm 4 mps 705 mmHg 27%
    02:00 +25°C° 0 mm 5 mps 705 mmHg 26%
    03:00 +24°C° 0 mm 6 mps 705 mmHg 25%
    04:00 +23°C° 0 mm 7 mps 705 mmHg 23%
    05:00 +24°C° 0 mm 7 mps 705 mmHg 22%
    06:00 +24°C° 0 mm 7 mps 706 mmHg 22%
    07:00 +24°C° 0 mm 7 mps 706 mmHg 21%
    08:00 +27°C° 0 mm 7 mps 706 mmHg 20%
    09:00 +28°C° 0 mm 7 mps 705 mmHg 20%
    10:00 +29°C° 0 mm 6 mps 705 mmHg 19%
    11:00 +30°C° 0 mm 6 mps 705 mmHg 19%
    12:00 +32°C° 0 mm 6 mps 704 mmHg 19%
    13:00 +33°C° 0 mm 6 mps 704 mmHg 19%
    14:00 +33°C° 0 mm 6 mps 704 mmHg 20%
    15:00 +33°C° 0 mm 6 mps 703 mmHg 21%
    16:00 +33°C° 0 mm 5 mps 703 mmHg 22%
    17:00 +30°C° 0 mm 5 mps 703 mmHg 27%
    18:00 +29°C° 0 mm 4 mps 704 mmHg 31%
    19:00 +27°C° 0 mm 4 mps 704 mmHg 36%
    20:00 +27°C° 0 mm 4 mps 704 mmHg 38%
    21:00 +26°C° 0 mm 4 mps 705 mmHg 40%
    22:00 +25°C° 0 mm 4 mps 705 mmHg 42%
    23:00 +25°C° 0 mm 4 mps 704 mmHg 43%

    Tomorrow, 17 December, Tuesday

    Time Temperature Precipitation Wind Pressure Humidity
    00:00 +25°C° 0 mm 3 mps 704 mmHg 45%
    01:00 +24°C° 0 mm 3 mps 704 mmHg 46%
    02:00 +24°C° 0 mm 3 mps 704 mmHg 48%
    03:00 +22°C° 0 mm 3 mps 703 mmHg 49%
    04:00 +23°C° 0 mm 2 mps 703 mmHg 51%
    05:00 +25°C° 0 mm 3 mps 704 mmHg 46%
    06:00 +26°C° 0 mm 4 mps 704 mmHg 41%
    07:00 +28°C° 0 mm 4 mps 704 mmHg 37%
    08:00 +30°C° 0 mm 4 mps 704 mmHg 32%
    09:00 +32°C° 0 mm 5 mps 704 mmHg 26%
    10:00 +34°C° 0 mm 5 mps 704 mmHg 21%
    11:00 +35°C° 0 mm 5 mps 703 mmHg 19%
    12:00 +36°C° 0 mm 6 mps 702 mmHg 16%
    13:00 +38°C° 0 mm 6 mps 702 mmHg 14%
    14:00 +38°C° 0 mm 6 mps 701 mmHg 14%
    15:00 +38°C° 0 mm 6 mps 701 mmHg 15%
    16:00 +38°C° 0 mm 7 mps 700 mmHg 16%
    17:00 +36°C° 0 mm 7 mps 700 mmHg 18%
    18:00 +34°C° 0 mm 7 mps 701 mmHg 21%
    19:00 +32°C° 0 mm 7 mps 701 mmHg 24%
    20:00 +32°C° 0 mm 6 mps 701 mmHg 26%
    21:00 +30°C° 0 mm 6 mps 702 mmHg 28%
    22:00 +29°C° 0 mm 6 mps 702 mmHg 30%
    23:00 +29°C° 0 mm 6 mps 702 mmHg 31%

    Day after tomorrow, 18 December, Wednesday

    Time Temperature Precipitation Wind Pressure Humidity
    00:00 +28°C° 0 mm 5 mps 702 mmHg 33%
    01:00 +28°C° 0 mm 5 mps 701 mmHg 35%
    02:00 +27°C° 0 mm 5 mps 701 mmHg 36%
    03:00 +26°C° 0 mm 4 mps 701 mmHg 37%
    04:00 +26°C° 0 mm 3 mps 701 mmHg 38%
    05:00 +27°C° 0 mm 3 mps 702 mmHg 35%
    06:00 +28°C° 0 mm 3 mps 702 mmHg 32%
    07:00 +30°C° 0 mm 3 mps 703 mmHg 29%
    08:00 +31°C° 0 mm 3 mps 703 mmHg 27%
    09:00 +34°C° 0 mm 3 mps 702 mmHg 24%
    10:00 +36°C° 0 mm 3 mps 702 mmHg 22%
    11:00 +37°C° 0 mm 3 mps 701 mmHg 20%
    12:00 +38°C° 0 mm 3 mps 701 mmHg 18%
    13:00 +40°C° 0 mm 4 mps 700 mmHg 17%
    14:00 +40°C° 0 mm 4 mps 700 mmHg 16%
    15:00 +41°C° 0 mm 4 mps 699 mmHg 15%
    16:00 +41°C° 0 mm 4 mps 699 mmHg 15%
    17:00 +40°C° 0 mm 5 mps 699 mmHg 18%
    18:00 +37°C° 0 mm 5 mps 700 mmHg 21%
    19:00 +36°C° 0 mm 5 mps 700 mmHg 24%
    20:00 +35°C° 0 mm 5 mps 701 mmHg 26%
    21:00 +34°C° 0 mm 6 mps 701 mmHg 29%
    22:00 +34°C° 0 mm 6 mps 701 mmHg 31%
    23:00 +33°C° 0 mm 5 mps 701 mmHg 33%

    19 December, Thursday

    Time Temperature Precipitation Wind Pressure Humidity
    00:00 +32°C° 0 mm 5 mps 701 mmHg 35%
    01:00 +32°C° 0 mm 4 mps 700 mmHg 36%
    02:00 +30°C° 0 mm 4 mps 701 mmHg 38%
    03:00 +29°C° 0 mm 3 mps 701 mmHg 40%
    04:00 +28°C° 0 mm 3 mps 701 mmHg 42%
    05:00 +28°C° 0 mm 5 mps 701 mmHg 41%
    06:00 +29°C° 0 mm 6 mps 702 mmHg 40%
    07:00 +29°C° 0 mm 8 mps 702 mmHg 39%
    08:00 +31°C° 0 mm 8 mps 702 mmHg 36%
    09:00 +33°C° 0 mm 9 mps 702 mmHg 34%
    10:00 +34°C° 0 mm 9 mps 702 mmHg 31%
    11:00 +35°C° 0 mm 9 mps 701 mmHg 29%
    12:00 +37°C° 0 mm 8 mps 701 mmHg 27%
    13:00 +38°C° 0 mm 8 mps 700 mmHg 25%
    14:00 +38°C° 0 mm 8 mps 700 mmHg 24%
    15:00 +38°C° 0 mm 8 mps 700 mmHg 23%
    16:00 +38°C° 0 mm 8 mps 699 mmHg 22%
    17:00 +36°C° 0 mm 6 mps 700 mmHg 24%
    18:00 +35°C° 0 mm 5 mps 700 mmHg 25%
    19:00 +34°C° 0 mm 4 mps 700 mmHg 27%
    20:00 +33°C° 0.1 mm 5 mps 701 mmHg 30%
    21:00 +32°C° 0.1 mm 5 mps 701 mmHg 34%
    22:00 +30°C° 0.1 mm 6 mps 701 mmHg 37%
    23:00 +28°C° 0.1 mm 9 mps 702 mmHg 45%

    20 December, Friday

    Time Temperature Precipitation Wind Pressure Humidity
    00:00 +27°C° 0.1 mm 11 mps 702 mmHg 53%
    01:00 +24°C° 0.1 mm 14 mps 702 mmHg 61%
    02:00 +23°C° 0.1 mm 13 mps 703 mmHg 62%
    03:00 +21°C° 0.1 mm 12 mps 703 mmHg 63%
    04:00 +18°C° 0.1 mm 11 mps 704 mmHg 65%
    05:00 +19°C° 0 mm 11 mps 704 mmHg 62%
    06:00 +19°C° 0 mm 10 mps 705 mmHg 59%
    07:00 +19°C° 0 mm 10 mps 706 mmHg 56%
    08:00 +22°C° 0 mm 10 mps 706 mmHg 49%
    09:00 +23°C° 0 mm 9 mps 706 mmHg 42%
    10:00 +26°C° 0 mm 9 mps 707 mmHg 35%
    11:00 +27°C° 0 mm 9 mps 706 mmHg 32%
    12:00 +28°C° 0 mm 8 mps 706 mmHg 29%
    13:00 +29°C° 0 mm 8 mps 705 mmHg 26%
    14:00 +29°C° 0 mm 7 mps 705 mmHg 25%
    15:00 +30°C° 0 mm 7 mps 705 mmHg 24%
    16:00 +30°C° 0 mm 7 mps 705 mmHg 24%
    17:00 +29°C° 0 mm 6 mps 705 mmHg 25%
    18:00 +28°C° 0 mm 5 mps 705 mmHg 26%
    19:00 +27°C° 0 mm 4 mps 706 mmHg 27%
    20:00 +27°C° 0 mm 4 mps 706 mmHg 28%
    21:00 +26°C° 0 mm 4 mps 707 mmHg 28%
    22:00 +26°C° 0 mm 4 mps 707 mmHg 29%
    23:00 +25°C° 0 mm 4 mps 707 mmHg 30%

    21 December, Saturday

    Time Temperature Precipitation Wind Pressure Humidity
    00:00 +25°C° 0 mm 5 mps 707 mmHg 31%
    01:00 +23°C° 0 mm 5 mps 706 mmHg 32%
    02:00 +23°C° 0 mm 5 mps 706 mmHg 32%
    03:00 +23°C° 0 mm 5 mps 706 mmHg 32%
    04:00 +23°C° 0 mm 4 mps 706 mmHg 32%
    05:00 +25°C° 0 mm 4 mps 707 mmHg 32%
    06:00 +26°C° 0 mm 4 mps 707 mmHg 33%
    07:00 +26°C° 0 mm 4 mps 707 mmHg 33%
    08:00 +27°C° 0 mm 3 mps 707 mmHg 32%
    09:00 +27°C° 0 mm 3 mps 707 mmHg 31%
    10:00 +28°C° 0 mm 2 mps 707 mmHg 30%
    11:00 +29°C° 0 mm 2 mps 706 mmHg 28%
    12:00 +30°C° 0 mm 2 mps 705 mmHg 26%
    13:00 +31°C° 0 mm 2 mps 705 mmHg 24%
    14:00 +31°C° 0 mm 2 mps 704 mmHg 23%
    15:00 +32°C° 0 mm 2 mps 704 mmHg 22%
    16:00 +32°C° 0 mm 2 mps 704 mmHg 20%
    17:00 +31°C° 0 mm 2 mps 704 mmHg 21%
    18:00 +31°C° 0 mm 2 mps 704 mmHg 21%
    19:00 +30°C° 0 mm 3 mps 705 mmHg 22%
    20:00 +29°C° 0 mm 2 mps 705 mmHg 23%
    21:00 +28°C° 0 mm 2 mps 706 mmHg 24%
    22:00 +27°C° 0 mm 2 mps 706 mmHg 26%
    23:00 +27°C° 0 mm 3 mps 706 mmHg 28%
    Show more